{"data":{"norad_id":66972,"intl_designator":"2025-288P","name":"STARLINK-34846","alt_names":[],"object_type":"PAYLOAD","status":"ACTIVE","operator":null,"country":"US","launch_date":"2025-12-08","launch_site_code":"AFETR","launch_vehicle":null,"mission":null,"orbit_class":"UNKNOWN","rcs_meters":null,"size_class":null,"mass_kg":null,"dimensions":null,"purposes":["comms"],"wikipedia_slug":null,"has_3d_model":false,"image_url":null,"decayed_at":null,"tle_current":{"epoch":"2026-09-19T14:08:07.787328Z","epoch_age_seconds":160010,"freshness":"FRESH","line1":"1 66972U 25288P   26262.58897902  .00013445  00000+0  49694-3 0  9992","line2":"2 66972  43.0006   8.2523 0002533 117.1832 242.9278 15.27596826 44947","mean_motion":15.27596826,"eccentricity":0.0002533,"inclination_deg":43.0006,"raan_deg":8.2523,"arg_perigee_deg":117.1832,"mean_anomaly_deg":242.9278,"bstar":0.00049694,"rev_number":4494,"period_min":94.265710394976,"perigee_km":481.26078772879,"apogee_km":484.7366390812,"semimajor_km":6861.135713405,"source":"CELESTRAK","updated_at":"2026-09-21T09:00:36.064667Z"}}}